This demonstration page uses our WeatherBlox Daily Observations layout. Learn more.

Left ArrowRight Arrow

Hourly Observations for May 22, 2017

Temp ( °F °C ) Dew Point ( °F °C ) Humidity (%) Winds ( mph kmh ) Pressure ( in mb ) Visibility ( mi km ) Precip ( " mm )
12:15 am 00:15 Cloudy 63 17 54 12 73 73 S 7 11 30.18 1022 10 16 N/A
12:35 am 00:35 Cloudy 63 17 54 12 73 73 S 5 7 30.18 1022 10 16 N/A
12:55 am 00:55 Cloudy 63 17 55 13 77 77 S 5 7 30.18 1022 10 16 N/A
1:15 am 01:15 Cloudy 63 17 55 13 77 77 S 3 6 30.18 1022 10 16 N/A
1:35 am 01:35 Cloudy 63 17 55 13 77 77 S 3 6 30.15 1021 10 16 N/A
1:55 am 01:55 Cloudy with Light Rain 63 17 57 14 83 83 N N/A 30.15 1021 10 16 N/A
2:15 am 02:15 Cloudy 63 17 57 14 83 83 SSE 5 7 30.15 1021 10 16 N/A
2:35 am 02:35 Cloudy 63 17 55 13 77 77 SSE 3 6 30.15 1021 10 16 N/A
2:55 am 02:55 Cloudy with Light Rain 63 17 57 14 83 83 N N/A 30.15 1021 10 16 N/A
3:15 am 03:15 Cloudy 61 16 59 15 94 94 N N/A 30.12 1020 10 16 N/A
3:35 am 03:35 Cloudy with Light Rain 61 16 59 15 94 94 N N/A 30.12 1020 10 16 N/A
3:55 am 03:55 Cloudy with Light Rain 61 16 59 15 94 94 S 3 6 30.12 1020 10 16 N/A
4:15 am 04:15 Cloudy with Rain 61 16 59 15 94 94 SSE 5 7 30.12 1020 7 11 N/A
4:35 am 04:35 Cloudy with Rain 59 15 59 15 100 100 S 3 6 30.12 1020 7 11 0.01 0.25
4:55 am 04:55 Cloudy with Drizzle 59 15 59 15 100 100 SSE 5 7 30.12 1020 10 16 0.02 0.51
5:15 am 05:15 Cloudy with Drizzle 59 15 59 15 100 100 N N/A 30.12 1020 7 11 N/A
5:35 am 05:35 Cloudy with Light Rain 59 15 59 15 100 100 N N/A 30.12 1020 7 11 0.01 0.25
5:55 am 05:55 Cloudy with Heavy Rain 59 15 59 15 100 100 N N/A 30.09 1019 4 6 0.07 1.78
6:15 am 06:15 Cloudy with Rain 59 15 59 15 100 100 N N/A 30.12 1020 4 6 0.05 1.27
6:35 am 06:35 Cloudy with Rain 59 15 59 15 100 100 N N/A 30.12 1020 5 8 0.08 2.03
6:55 am 06:55 Cloudy with Drizzle 59 15 59 15 100 100 N N/A 30.12 1020 7 11 0.09 2.29
7:15 am 07:15 Cloudy with Drizzle 59 15 59 15 100 100 E 3 6 30.09 1019 7 11 N/A
7:35 am 07:35 Cloudy with Light Rain 59 15 59 15 100 100 N N/A 30.12 1020 10 16 N/A
7:55 am 07:55 Cloudy with Light Rain 59 15 59 15 100 100 N N/A 30.09 1019 5 8 0.02 0.51
8:15 am 08:15 Cloudy with Drizzle 59 15 59 15 100 100 S 6 9 30.12 1020 10 16 N/A
8:35 am 08:35 Cloudy with Light Rain 59 15 59 15 100 100 S 6 9 30.09 1019 10 16 N/A
8:55 am 08:55 Cloudy 61 16 61 16 100 100 SSE 6 9 30.09 1019 10 16 N/A
9:15 am 09:15 Cloudy 61 16 61 16 100 100 N N/A 30.09 1019 10 16 N/A
9:35 am 09:35 Cloudy 61 16 61 16 100 100 ESE 5 7 30.09 1019 10 16 N/A
9:55 am 09:55 Cloudy 61 16 61 16 100 100 S 5 7 30.06 1018 10 16 N/A
10:15 am 10:15 Cloudy 63 17 63 17 100 100 S 5 7 30.06 1018 10 16 N/A
10:35 am 10:35 Cloudy 63 17 63 17 100 100 SSW 5 7 30.06 1018 10 16 N/A
10:55 am 10:55 Cloudy 63 17 63 17 100 100 SSW 3 6 30.06 1018 10 16 N/A
11:15 am 11:15 Cloudy 63 17 63 17 100 100 S 3 6 30.06 1018 10 16 N/A
11:35 am 11:35 Cloudy 63 17 63 17 100 100 SSW 5 7 30.06 1018 10 16 N/A
11:55 am 11:55 Cloudy 63 17 63 17 100 100 S 5 7 30.06 1018 10 16 N/A
12:15 pm 12:15 Cloudy 64 18 63 17 94 94 S 7 11 30.06 1018 10 16 N/A
12:35 pm 12:35 Cloudy 66 19 63 17 88 88 S 7 11 30.03 1017 10 16 N/A
12:55 pm 12:55 Cloudy 66 19 63 17 88 88 S 5 7 30.03 1017 10 16 N/A
1:15 pm 13:15 Cloudy 68 20 64 18 88 88 S 5 7 30.03 1017 10 16 N/A
1:35 pm 13:35 Cloudy 68 20 64 18 88 88 N N/A 30.00 1016 10 16 N/A
1:55 pm 13:55 Cloudy 68 20 64 18 88 88 N N/A 30.00 1016 10 16 N/A
2:15 pm 14:15 Cloudy 70 21 64 18 83 83 S 3 6 30.00 1016 10 16 N/A
2:35 pm 14:35 Cloudy 70 21 64 18 83 83 S 3 6 30.00 1016 10 16 N/A
2:55 pm 14:55 Cloudy 70 21 64 18 83 83 N N/A 29.97 1015 10 16 N/A
3:15 pm 15:15 Cloudy 70 21 64 18 83 83 S 3 6 29.97 1015 10 16 N/A
3:35 pm 15:35 Cloudy 70 21 64 18 83 83 SSW 3 6 29.97 1015 10 16 N/A
3:55 pm 15:55 Cloudy 70 21 64 18 83 83 N N/A 29.97 1015 10 16 N/A
4:15 pm 16:15 Cloudy 70 21 64 18 83 83 N N/A 29.97 1015 10 16 N/A
4:35 pm 16:35 Cloudy 72 22 64 18 78 78 N N/A 29.97 1015 10 16 N/A
4:55 pm 16:55 Cloudy 72 22 64 18 78 78 SSW 5 7 29.97 1015 10 16 N/A
5:15 pm 17:15 Mostly Cloudy 72 22 64 18 78 78 WSW 3 6 29.97 1015 10 16 N/A
5:35 pm 17:35 Mostly Cloudy 72 22 64 18 78 78 N N/A 29.97 1015 10 16 N/A
5:55 pm 17:55 Mostly Cloudy 72 22 66 19 83 83 W 3 6 29.97 1015 10 16 N/A
6:15 pm 18:15 Sunny 72 22 66 19 83 83 N N/A 29.97 1015 10 16 N/A
6:35 pm 18:35 Sunny 72 22 66 19 83 83 SSE 3 6 29.97 1015 10 16 N/A
6:55 pm 18:55 Sunny 72 22 66 19 83 83 N N/A 29.97 1015 10 16 N/A
7:15 pm 19:15 Sunny 72 22 66 19 83 83 N N/A 29.97 1015 10 16 N/A
7:35 pm 19:35 Sunny 72 22 66 19 83 83 N N/A 29.97 1015 10 16 N/A
7:55 pm 19:55 Sunny 70 21 66 19 88 88 N N/A 29.97 1015 10 16 N/A
8:15 pm 20:15 Sunny 68 20 66 19 94 94 N N/A 29.97 1015 10 16 N/A
8:35 pm 20:35 Clear 68 20 66 19 94 94 N N/A 29.97 1015 10 16 N/A
8:55 pm 20:55 Clear 68 20 66 19 94 94 N N/A 29.97 1015 10 16 N/A
9:15 pm 21:15 Clear 66 19 66 19 100 100 N N/A 30.00 1016 10 16 N/A
9:35 pm 21:35 Clear 66 19 66 19 100 100 N N/A 30.00 1016 10 16 N/A
9:55 pm 21:55 Clear 63 17 63 17 100 100 N N/A 30.00 1016 10 16 N/A
10:15 pm 22:15 Clear 64 18 64 18 100 100 N N/A 30.00 1016 10 16 N/A
10:35 pm 22:35 Clear 63 17 63 17 100 100 WNW 3 6 30.00 1016 10 16 N/A
10:55 pm 22:55 Partly Cloudy 63 17 63 17 100 100 N N/A 30.00 1016 10 16 N/A
11:15 pm 23:15 Mostly Cloudy 63 17 63 17 100 100 N N/A 30.00 1016 10 16 N/A
11:35 pm 23:35 Partly Cloudy 64 18 64 18 100 100 N 8 13 30.00 1016 10 16 N/A
11:55 pm 23:55 Clear 64 18 59 15 83 83 N 10 17 30.00 1016 10 16 N/A

Powered by AerisWeather